Regional Weather Roundup
Issued by NWS

Home | Current Version | Previous Version | Graphics & Text | Print | Product List | Glossary On
Versions: 1 2 3 4 5 6 7 8 9 10 11 12 13 14 15 16 17 18 19 20 21 22 23 24 25 26 27 28 29 30 31 32 33 34 35 36 37 38 39 40 41 42 43 44 45 46 47 48 49 50
000
ASUS43 KBIS 231810
RWRND

NORTH DAKOTA REGIONAL WEATHER ROUNDUP
NATIONAL WEATHER SERVICE BISMARCK ND
1200 PM CST MON JAN 23 2017

NOTE: "FAIR" INDICATES FEW OR NO CLOUDS BELOW 12,000 FEET WITH NO
SIGNIFICANT WEATHER AND/OR OBSTRUCTIONS TO VISIBILITY.


NDZ001>003-009>011-017-231900-
NORTHWEST NORTH DAKOTA

CITY           SKY/WX    TMP DP  RH WIND       PRES   REMARKS
WILLISTON      CLOUDY    24  20  84 N9        29.79F WCI  14
6HR MIN TEMP:  24; 6HR MAX TEMP:  28;

MINOT          CLOUDY    26  20  77 W18       29.76F WCI  13
MINOT AFB      CLOUDY    23  19  83 NW17      29.75F WCI   9
$$

NDZ018>021-031>035-040>046-231900-
SOUTHWEST NORTH DAKOTA

CITY           SKY/WX    TMP DP  RH WIND       PRES   REMARKS
BISMARCK       CLOUDY    30  22  72 SE3       29.80S
6HR MIN TEMP:  29; 6HR MAX TEMP:  31;

DICKINSON      CLOUDY    23  20  88 S6        29.73R WCI  16
GARRISON         N/A     29  24  82 N5        29.76S
6HR MIN TEMP:  27; 6HR MAX TEMP:  30;

HETTINGER ARPT FOG       23  21  92 SE6       29.75R VSB 3/4 WCI  16
$$

NDZ004>008-012>016-024-026-027-054-231900-
NORTHEAST NORTH DAKOTA

CITY           SKY/WX    TMP DP  RH WIND       PRES   REMARKS
GRAND FORKS    CLOUDY    32  24  72 W17       29.79F
GRND FRKS AFB  CLOUDY    31  22  68 NW14G22   29.78F
DEVILS LAKE    CLOUDY    27  22  81 W16       29.76F WCI  15
$$

NDZ022-023-025-028>030-036>039-047>053-231900-
SOUTHEAST NORTH DAKOTA

CITY           SKY/WX    TMP DP  RH WIND       PRES   REMARKS
FARGO          CLOUDY    35  29  78 W8        29.81F
6HR MIN TEMP:  34; 6HR MAX TEMP:  35;

JAMESTOWN      CLOUDY    28  22  78 W12       29.79S WCI  18
$$





USA.gov is the U.S. government's official web portal to all federal, state and local government web resources and services.